Showing default

COSMOS 2330, 23792

Orbit data source: Space-Track

COSMOS 2330, 23792 is a payload satellite owned by VKS (CIS) in LEO that was launched on Mon, 19 Feb 1996 UTC via a TSIKLON-3 launch vehicle from the Plesetsk Missile And Space Complex (PKMTR). Payload-class satellites include a variety of spacecraft equipped with specific instruments for various scientific and technological missions. These include communications satellites like Starlink; space stations such as the ISS; scientific satellites like the Hubble; Earth observation satellites from companies like Planet Labs, Umbra, and HawkEye 360; GPS; miniature CubeSats for education and research; and military/defense satellites.

Loading next visibility...
Identifier
23792, 1996-009F
Orbit
LEO
Country
Flag of CISCIS
Related business
Manufacturer
NPO PM
Mission
Non-operational Defense Communications
Bus & Motor
STRELA-3, Unknown motor
Mass
225 kg wet, 225 kg dry
Launch date (UTC)
1996-02-19 (30 years ago)
Launch vehicle
TSIKLON-3
Launch site
Plesetsk Missile And Space Complex (PKMTR)
Object type
Payload
Rocket body
Debris
Shape & HBR
Cyl + 1 Ant, 3.5 m
Radar Cross Section
1.583 m², Medium (>0.1 m² and < 1m²)

Expand to show TLE details & history
Last TLE update: 12 hours ago

TLE from 12 hours ago
0 COSMOS 2330
1 23792U 96009F   25260.11620544  .00000007  00000-0 -22294-4 0  9996
2 23792  82.5843 157.6767 0011585 340.8935  19.1720 12.60968293361226
Epoch: 2025-09-17T02:47Z
TLE epoch observation values (Epoch: 2025-09-17T02:47:20.15Z)
Latitude
0.00007°
Longitude
119.54598°
Altitude
1,413.146 km
Speed
7.158 km/s
True Right ascension
10h 30m 42s
True Declination
0° 00' 00"
Sunlit
Object was in daylight at epoch
Visualization orbit readout
Latitude
Unknown
Longitude
Unknown
Altitude
Unknown
Speed
Unknown
Apparent Right ascension
Unknown
Apparent Declination
Unknown
Sunlit
N/A
Visualization observer readout
Local Sidereal Time
07:35:59
Azimuth
Unknown
Elevation
Unknown
Doppler factor
Unknown
Orbital elements
Apogee altitude
1,425.303 km
Perigee altitude
1,407.243 km
Semi-major axis
7,794.41 km
Eccentricity
0.00116
Inclination
82.5843°
RAAN
157.6767°
Arg. of periapsis
340.8935°
True anomaly
19.21566°
Mean anomaly
19.172°
Eccentric anomaly
19.19382°
Mean motion
3.15405 °/min
Orbital period
114.14 mins
BSTAR
-0.000022294
Loading maneuver chart data...
Computing Atmospheric mass density...
Loading historical data...
Loading historical data...
Loading historical data...
Loading historical data...
Loading historical data...
Loading historical data...
Loading historical data...

Documentation

Showing up to 5 results
|